When you browse on this site, cookies collect data to enhance your experience and personalize the content and advertising you see.
Visit our Privacy Policy to learn more. By continuing to use the site, you agree to this use of cookies and data.
  • In Latvia
  • List of Countries
  • For 7 days
  • Water Temperature
  • Satellite Maps
  • Weather Map
  • Weather Widgets
  • user-avatar
    Login

    Hourly Weather Dagestanskaya

    Today, 16 November, Friday

    Time Temperature Precipitation Wind Pressure Humidity
    00:00 +5°C° 0 mm 2 mps 736 mmHg 87%
    01:00 +5°C° 0 mm 2 mps 736 mmHg 87%
    02:00 +5°C° 0 mm 2 mps 736 mmHg 87%
    03:00 +5°C° 0 mm 2 mps 736 mmHg 86%
    04:00 +5°C° 0 mm 2 mps 736 mmHg 85%
    05:00 +5°C° 0 mm 2 mps 736 mmHg 85%
    06:00 +5°C° 0 mm 2 mps 737 mmHg 84%
    07:00 +5°C° 0 mm 2 mps 737 mmHg 81%
    08:00 +6°C° 0 mm 2 mps 737 mmHg 78%
    09:00 +7°C° 0 mm 2 mps 737 mmHg 74%
    10:00 +8°C° 0 mm 2 mps 737 mmHg 70%
    11:00 +9°C° 0 mm 3 mps 737 mmHg 67%
    12:00 +10°C° 0 mm 3 mps 738 mmHg 64%
    13:00 +10°C° 0 mm 3 mps 738 mmHg 65%
    14:00 +10°C° 0 mm 3 mps 738 mmHg 66%
    15:00 +10°C° 0 mm 2 mps 738 mmHg 66%
    16:00 +9°C° 0 mm 3 mps 738 mmHg 71%
    17:00 +7°C° 0 mm 3 mps 738 mmHg 77%
    18:00 +5°C° 0 mm 3 mps 738 mmHg 82%
    19:00 +5°C° 0 mm 3 mps 738 mmHg 83%
    20:00 +5°C° 0 mm 3 mps 738 mmHg 84%
    21:00 +4°C° 0 mm 3 mps 738 mmHg 85%
    22:00 +5°C° 0.3 mm 2 mps 738 mmHg 86%
    23:00 +5°C° 0.3 mm 2 mps 738 mmHg 87%

    Tomorrow, 17 November, Saturday

    Time Temperature Precipitation Wind Pressure Humidity
    00:00 +5°C° 0.3 mm 2 mps 738 mmHg 88%
    01:00 +5°C° 0.6 mm 2 mps 739 mmHg 88%
    02:00 +5°C° 0.6 mm 2 mps 739 mmHg 89%
    03:00 +5°C° 0.6 mm 2 mps 739 mmHg 89%
    04:00 +5°C° 0.8 mm 2 mps 739 mmHg 90%
    05:00 +5°C° 0.8 mm 2 mps 740 mmHg 90%
    06:00 +5°C° 0.8 mm 2 mps 740 mmHg 91%
    07:00 +6°C° 0.2 mm 2 mps 740 mmHg 90%
    08:00 +6°C° 0.2 mm 2 mps 741 mmHg 88%
    09:00 +6°C° 0.2 mm 2 mps 741 mmHg 87%
    10:00 +7°C° 0 mm 2 mps 741 mmHg 83%
    11:00 +8°C° 0 mm 2 mps 741 mmHg 79%
    12:00 +9°C° 0 mm 2 mps 741 mmHg 75%
    13:00 +9°C° 0 mm 2 mps 741 mmHg 75%
    14:00 +9°C° 0 mm 2 mps 741 mmHg 76%
    15:00 +9°C° 0 mm 2 mps 741 mmHg 76%
    16:00 +8°C° 0.2 mm 2 mps 742 mmHg 80%
    17:00 +8°C° 0.2 mm 2 mps 742 mmHg 84%
    18:00 +8°C° 0.2 mm 1 mps 742 mmHg 88%
    19:00 +8°C° 0.3 mm 1 mps 742 mmHg 88%
    20:00 +8°C° 0.3 mm 1 mps 742 mmHg 89%
    21:00 +8°C° 0.3 mm 1 mps 742 mmHg 89%
    22:00 +8°C° 0.2 mm 1 mps 741 mmHg 89%
    23:00 +8°C° 0.2 mm 1 mps 741 mmHg 89%

    Day after tomorrow, 18 November, Sunday

    Time Temperature Precipitation Wind Pressure Humidity
    00:00 +8°C° 0.2 mm 1 mps 741 mmHg 89%
    01:00 +7°C° 0 mm 1 mps 741 mmHg 90%
    02:00 +7°C° 0 mm 1 mps 741 mmHg 90%
    03:00 +7°C° 0 mm 1 mps 741 mmHg 91%
    04:00 +6°C° 0 mm 1 mps 741 mmHg 91%
    05:00 +6°C° 0 mm 1 mps 740 mmHg 90%
    06:00 +6°C° 0 mm 1 mps 740 mmHg 90%
    07:00 +7°C° 0 mm 1 mps 740 mmHg 87%
    08:00 +7°C° 0 mm 1 mps 740 mmHg 84%
    09:00 +8°C° 0 mm 1 mps 740 mmHg 80%
    10:00 +9°C° 0 mm 1 mps 739 mmHg 78%
    11:00 +10°C° 0 mm 1 mps 739 mmHg 75%
    12:00 +10°C° 0 mm 2 mps 739 mmHg 72%
    13:00 +10°C° 0 mm 2 mps 739 mmHg 74%
    14:00 +10°C° 0 mm 2 mps 738 mmHg 76%
    15:00 +9°C° 0 mm 2 mps 738 mmHg 78%
    16:00 +8°C° 0 mm 2 mps 738 mmHg 82%
    17:00 +9°C° 0 mm 1 mps 738 mmHg 86%
    18:00 +8°C° 0 mm 1 mps 738 mmHg 90%
    19:00 +7°C° 0 mm 1 mps 738 mmHg 90%
    20:00 +7°C° 0 mm 1 mps 738 mmHg 90%
    21:00 +7°C° 0 mm 1 mps 738 mmHg 90%
    22:00 +6°C° 0 mm 1 mps 738 mmHg 90%
    23:00 +6°C° 0 mm 1 mps 738 mmHg 89%

    19 November, Monday

    Time Temperature Precipitation Wind Pressure Humidity
    00:00 +6°C° 0 mm 1 mps 738 mmHg 89%
    01:00 +6°C° 0 mm 1 mps 738 mmHg 88%
    02:00 +6°C° 0 mm 1 mps 738 mmHg 86%
    03:00 +5°C° 0 mm 1 mps 738 mmHg 85%
    04:00 +5°C° 0 mm 1 mps 738 mmHg 85%
    05:00 +5°C° 0 mm 1 mps 738 mmHg 84%
    06:00 +4°C° 0 mm 2 mps 737 mmHg 83%
    07:00 +5°C° 0 mm 2 mps 737 mmHg 81%
    08:00 +6°C° 0 mm 2 mps 737 mmHg 78%
    09:00 +6°C° 0 mm 2 mps 737 mmHg 75%
    10:00 +8°C° 0 mm 2 mps 737 mmHg 69%
    11:00 +10°C° 0 mm 2 mps 737 mmHg 63%
    12:00 +12°C° 0 mm 2 mps 736 mmHg 56%
    13:00 +13°C° 0 mm 2 mps 736 mmHg 56%
    14:00 +13°C° 0 mm 2 mps 736 mmHg 55%
    15:00 +13°C° 0 mm 2 mps 735 mmHg 55%
    16:00 +12°C° 0.1 mm 2 mps 735 mmHg 59%
    17:00 +10°C° 0.1 mm 2 mps 735 mmHg 63%
    18:00 +9°C° 0.1 mm 2 mps 735 mmHg 67%
    19:00 +9°C° 0.5 mm 2 mps 735 mmHg 70%
    20:00 +9°C° 0.5 mm 2 mps 735 mmHg 73%
    21:00 +9°C° 0.5 mm 2 mps 735 mmHg 76%
    22:00 +9°C° 0.5 mm 2 mps 735 mmHg 77%
    23:00 +9°C° 0.5 mm 2 mps 735 mmHg 78%

    20 November, Tuesday

    Time Temperature Precipitation Wind Pressure Humidity
    00:00 +9°C° 0.5 mm 2 mps 735 mmHg 80%
    01:00 +9°C° 0.2 mm 2 mps 736 mmHg 80%
    02:00 +9°C° 0.2 mm 2 mps 736 mmHg 80%
    03:00 +9°C° 0.2 mm 2 mps 736 mmHg 80%
    04:00 +9°C° 0.4 mm 2 mps 736 mmHg 80%
    05:00 +9°C° 0.4 mm 2 mps 736 mmHg 81%
    06:00 +10°C° 0.4 mm 2 mps 737 mmHg 81%
    07:00 +10°C° 0.3 mm 2 mps 737 mmHg 80%
    08:00 +10°C° 0.3 mm 2 mps 737 mmHg 78%
    09:00 +12°C° 0.3 mm 2 mps 738 mmHg 77%
    10:00 +13°C° 0 mm 2 mps 738 mmHg 73%
    11:00 +14°C° 0 mm 2 mps 738 mmHg 68%
    12:00 +15°C° 0 mm 2 mps 738 mmHg 64%
    13:00 +16°C° 0 mm 2 mps 738 mmHg 63%
    14:00 +16°C° 0 mm 2 mps 738 mmHg 63%
    15:00 +16°C° 0 mm 2 mps 738 mmHg 62%
    16:00 +15°C° 0 mm 1 mps 738 mmHg 67%
    17:00 +14°C° 0 mm 1 mps 738 mmHg 71%
    18:00 +12°C° 0 mm 1 mps 738 mmHg 76%
    19:00 +12°C° 0 mm 1 mps 738 mmHg 76%
    20:00 +12°C° 0 mm 1 mps 738 mmHg 76%
    21:00 +10°C° 0 mm 2 mps 739 mmHg 76%
    22:00 +10°C° 0 mm 2 mps 738 mmHg 76%
    23:00 +10°C° 0 mm 2 mps 738 mmHg 76%

    21 November, Wednesday

    Time Temperature Precipitation Wind Pressure Humidity
    00:00 +10°C° 0 mm 2 mps 738 mmHg 75%
    01:00 +10°C° 0 mm 2 mps 738 mmHg 74%
    02:00 +10°C° 0 mm 2 mps 737 mmHg 74%
    03:00 +10°C° 0 mm 2 mps 737 mmHg 73%
    04:00 +10°C° 0 mm 2 mps 737 mmHg 72%
    05:00 +10°C° 0 mm 2 mps 737 mmHg 71%
    06:00 +10°C° 0 mm 2 mps 736 mmHg 70%
    07:00 +12°C° 0 mm 2 mps 737 mmHg 69%
    08:00 +12°C° 0 mm 2 mps 737 mmHg 68%
    09:00 +13°C° 0 mm 1 mps 737 mmHg 67%
    10:00 +14°C° 0.1 mm 1 mps 736 mmHg 65%
    11:00 +15°C° 0.1 mm 1 mps 736 mmHg 63%
    12:00 +16°C° 0.1 mm 1 mps 736 mmHg 61%
    13:00 +16°C° 0.1 mm 1 mps 736 mmHg 62%
    14:00 +16°C° 0.1 mm 1 mps 735 mmHg 64%
    15:00 +16°C° 0.1 mm 1 mps 735 mmHg 65%
    16:00 +15°C° 0.1 mm 1 mps 735 mmHg 67%
    17:00 +14°C° 0.1 mm 1 mps 735 mmHg 69%
    18:00 +13°C° 0.1 mm 2 mps 735 mmHg 71%
    19:00 +13°C° 0 mm 2 mps 734 mmHg 72%
    20:00 +13°C° 0 mm 2 mps 734 mmHg 72%
    21:00 +13°C° 0 mm 2 mps 734 mmHg 73%
    22:00 +12°C° 0 mm 2 mps 734 mmHg 72%
    23:00 +12°C° 0 mm 2 mps 734 mmHg 71%
    Show more